{"data":{"norad_id":48977,"intl_designator":"2021-060L","name":"ONEWEB-0259","alt_names":[],"object_type":"PAYLOAD","status":"ACTIVE","operator":null,"country":"UK","launch_date":"2021-07-01","launch_site_code":"VOSTO","launch_vehicle":null,"mission":null,"orbit_class":"UNKNOWN","rcs_meters":null,"size_class":null,"mass_kg":null,"dimensions":null,"purposes":["comms"],"wikipedia_slug":null,"has_3d_model":false,"image_url":null,"decayed_at":null,"tle_current":{"epoch":"2026-09-19T06:11:53.009088Z","epoch_age_seconds":129177,"freshness":"FRESH","line1":"1 48977U 21060L   26262.25825242 -.00000022  00000+0 -90816-4 0  9995","line2":"2 48977  87.9158 210.1055 0001865  73.5460 286.5875 13.16593685252001","mean_motion":13.16593685,"eccentricity":0.0001865,"inclination_deg":87.9158,"raan_deg":210.1055,"arg_perigee_deg":73.546,"mean_anomaly_deg":286.5875,"bstar":-9.0816e-5,"rev_number":25200,"period_min":109.37315106445,"perigee_km":1196.3459567694,"apogee_km":1199.1717659257,"semimajor_km":7575.8958613476,"source":"CELESTRAK","updated_at":"2026-09-20T09:00:44.624943Z"}}}